{"data":{"norad_id":61231,"epoch":"2026-09-22T23:23:51.397152Z","epoch_age_seconds":80838,"freshness":"FRESH","line1":"1 61231U 24173E   26265.97490043  .00000911  00000+0  46525-4 0  9993","line2":"2 61231  97.4114 336.3056 0001611  91.6534 268.4886 15.19175440110601","mean_motion":15.1917544,"eccentricity":0.0001611,"inclination_deg":97.4114,"raan_deg":336.3056,"arg_perigee_deg":91.6534,"mean_anomaly_deg":268.4886,"bstar":4.6525e-5,"rev_number":11060,"period_min":94.788262243102,"perigee_km":507.22191414842,"apogee_km":509.44073424247,"semimajor_km":6886.4683241954,"source":"CELESTRAK","updated_at":"2026-09-23T09:00:20.856349Z"}}